#timestamp,LO_Frequency,Hit 
1501768815.8,286046995.8,N
1501768835.6,286046991.8,N
1501768855.5,286046992.6,N
1501768875.3,286046991.1,N
1501768895.1,286046990.9,N
1501768915.8,286046989.1,N
1501768935.7,286046988.8,N
1501768955.5,286046987.9,N
1501768975.3,286046988.1,N
1501768995.2,286046986.8,P
1501769015.0,286046989.7,N
1501769015.9,286046989.7,P
1501769035.8,286046991.2,P
1501769055.6,286047000.7,N
1501769075.4,286047002.0,N
1501769095.3,286047002.9,N
1501769115.1,286047005.1,N
1501769116.0,286047005.1,N
1501769135.8,286047007.3,N
1501769155.6,286047007.0,N
1501769175.5,286047005.0,N
1501769195.3,286047004.5,N
1501769215.1,286047007.5,N
1501769235.9,286047005.0,N
1501769255.7,286047005.2,N
1501769275.5,286047005.2,N
1501769295.4,286047004.6,N
1501769315.2,286047005.3,N
1501769335.0,286047004.5,N
1501769335.9,286047004.5,N
1501769355.8,286047007.8,N
1501769375.6,286047006.8,N
1501769395.4,286047009.0,N
1501769415.3,286047007.1,N
1501769435.1,286047004.7,N
1501769436.0,286047004.7,N
1501769455.8,286047003.5,N
1501769475.6,286047003.8,N
1501769495.5,286047001.8,N
1501769515.3,286047002.7,N
1501769535.1,286047000.9,N
1501769555.9,286046999.2,N
1501769575.7,286046997.2,N
1501769595.5,286046997.8,N
1501769615.4,286046994.9,N
1501769635.2,286046995.1,N
1501769655.0,286046997.4,N
1501769655.9,286046997.4,N
1501769675.8,286046996.9,N
1501769695.6,286046995.2,N
1501769715.4,286046991.9,N
1501769735.3,286046992.4,N
1501769755.1,286046990.3,N
1501769756.0,286046990.3,N
1501769775.8,286046990.2,N
1501769795.7,286046993.1,N
1501769815.5,286046990.3,N
1501769835.3,286046992.5,N
1501769855.1,286046992.4,N
1501769875.9,286046989.9,N
1501769895.7,286046984.1,N
1501769915.5,286046984.6,N
1501769935.4,286046982.5,N
1501769955.2,286046983.7,N
1501769975.0,286046984.0,N
1501769975.9,286046984.0,N
1501769995.8,286046984.0,N
1501770015.6,286046984.2,N
1501770035.4,286046984.2,N
1501770055.3,286046984.9,N
1501770075.1,286046982.2,P
1501770095.8,286046994.3,N
1501770115.7,286046995.1,N
1501770135.5,286046993.3,N
1501770155.3,286046996.4,N
1501770175.2,286046995.2,N
1501770195.9,286046995.4,N
1501770215.7,286047001.0,N
1501770235.6,286046998.5,N
1501770255.4,286046998.6,N
1501770275.2,286046999.2,N
1501770295.0,286046999.1,N
1501770296.0,286046999.1,N
1501770315.8,286047000.9,N
1501770335.6,286047004.2,N
1501770355.4,286047001.0,N
1501770375.3,286047002.3,N
1501770395.1,286047000.2,N
1501770415.8,286047000.2,N
1501770435.7,286047000.7,N
1501770455.5,286046999.6,N
1501770475.3,286046996.7,N
1501770495.2,286046998.9,N
1501770515.9,286046999.4,N
1501770535.7,286046998.4,N
1501770555.6,286046999.9,N
1501770575.4,286047000.1,N
1501770595.2,286047002.3,N
1501770615.0,286047000.3,N
1501770616.0,286047000.3,N
1501770635.8,286047001.9,N
1501770655.6,286047005.6,N
1501770675.4,286047004.0,N
1501770695.3,286047005.2,N
1501770715.1,286047007.5,N
1501770735.8,286047003.3,N
1501770755.7,286047005.7,N
1501770775.5,286047004.2,N
1501770795.3,286047002.7,N
1501770815.2,286047000.3,N
1501770835.9,286047000.6,N
1501770855.7,286047000.6,N
1501770875.6,286047002.7,N
1501770895.4,286047000.4,N
1501770915.2,286047000.0,N
1501770935.1,286046998.1,N
1501770936.0,286046998.1,N
1501770955.8,286047000.6,N
1501770975.6,286046997.0,N
1501770995.4,286046996.8,N
1501771015.3,286046995.6,N
1501771035.1,286046996.1,N
1501771055.8,286046993.9,N
1501771075.7,286046994.8,N
1501771095.5,286046991.9,N
1501771115.3,286046994.1,N
1501771135.2,286046995.5,N
1501771155.9,286046997.9,N
1501771175.7,286046999.5,N
1501771195.6,286046999.2,N
1501771215.4,286046999.1,N
1501771235.2,286047002.8,N
1501771255.1,286047002.5,N
1501771256.0,286047002.5,N
1501771275.8,286047000.8,N
1501771295.6,286046998.8,N
1501771315.5,286046996.5,N
1501771335.3,286046995.4,N
1501771355.1,286046993.8,N
1501771375.8,286046993.3,N
1501771395.7,286046993.6,N
1501771415.5,286046994.2,N
1501771435.3,286046993.3,N
1501771455.2,286046997.3,N
1501771475.9,286046998.9,N
1501771495.7,286046999.2,N
1501771515.6,286046998.5,N
1501771535.4,286047001.6,N
1501771555.2,286047004.1,N
1501771575.1,286047002.7,N
1501771576.0,286047002.7,N
1501771595.8,286047002.8,N
1501771615.6,286046998.1,N
1501771635.5,286046999.5,N
1501771655.3,286046997.4,N
1501771675.1,286046997.0,N
1501771695.8,286046997.2,N
1501771715.7,286046997.9,N
1501771735.5,286046994.4,N
1501771755.3,286046994.4,N
1501771775.2,286046993.0,N
1501771795.0,286046992.9,N
1501771795.9,286046992.9,N
1501771815.7,286046990.4,N
1501771835.6,286046990.5,N
1501771855.4,286046994.6,N
1501771875.2,286046994.2,N
1501771895.1,286046993.9,N
1501771896.0,286046993.9,N
1501771915.8,286046994.4,N
1501771935.6,286046994.1,N
1501771955.5,286046994.4,N
1501771975.3,286046988.2,P
1501771995.1,286046987.2,P
1501772015.9,286046990.0,N
1501772035.7,286046988.6,P
1501772055.5,286046997.3,N
1501772075.4,286046997.3,N
1501772095.2,286046996.7,N
1501772115.0,286046997.0,N
1501772115.9,286046997.0,N
1501772135.8,286046995.3,N
1501772155.6,286046996.9,N
1501772175.4,286046995.0,N
1501772195.3,286046997.1,N
1501772215.1,286046993.7,N
1501772235.8,286046993.9,N
1501772255.7,286046992.3,N
1501772275.5,286046990.1,P
1501772295.3,286046992.8,P
1501772315.2,286046991.8,P
1501772335.0,286046993.3,P
1501772335.9,286046993.3,P
1501772355.8,286047002.1,P
1501772375.6,286047000.1,N
1501772395.4,286047000.8,N
